| time (UTC) | temp F | wind direction | speed MPH | gust MPH | rain 1hr in | rain 24hr in | rain mn in | humidity % | barometer mb |
| 20260505041347 | 56 | 195 | 2.0 | 5.0 | 0.00 | 0.00 | 0.00 | 65 | 1014.0 |
| 20260505040845 | 57 | 197 | 3.0 | 6.0 | 0.00 | 0.00 | 0.00 | 64 | 1014.1 |
| 20260505040322 | 56 | 208 | 3.0 | 6.0 | 0.00 | 0.00 | 0.00 | 62 | 1014.1 |
| 20260505035838 | 56 | 278 | 1.0 | 3.0 | 0.00 | 0.00 | 0.00 | 61 | 1014.1 |
| 20260505035358 | 56 | 332 | 2.0 | 3.0 | 0.00 | 0.00 | 0.00 | 60 | 1014.0 |
| 20260505034855 | 56 | 327 | 2.0 | 3.0 | 0.00 | 0.00 | 0.00 | 60 | 1014.0 |
| 20260505034314 | 57 | 186 | 0.0 | 3.0 | 0.00 | 0.00 | 0.00 | 60 | 1014.0 |
| 20260505033833 | 57 | 184 | 2.0 | 3.0 | 0.00 | 0.00 | 0.00 | 59 | 1014.1 |
| 20260505033330 | 57 | 16 | 1.0 | 3.0 | 0.00 | 0.00 | 0.00 | 59 | 1014.1 |
| 20260505032830 | 56 | 315 | 2.0 | 6.0 | 0.00 | 0.00 | 0.00 | 59 | 1014.2 |
| 20260505032330 | 56 | 284 | 3.0 | 6.0 | 0.00 | 0.00 | 0.00 | 60 | 1014.1 |
| 20260505031850 | 56 | 241 | 3.0 | 6.0 | 0.00 | 0.00 | 0.00 | 60 | 1014.3 |
| 20260505031348 | 56 | 232 | 3.0 | 6.0 | 0.00 | 0.00 | 0.00 | 60 | 1014.1 |
| 20260505030826 | 56 | 248 | 3.0 | 4.0 | 0.00 | 0.00 | 0.00 | 60 | 1014.3 |
| 20260505030325 | 57 | 217 | 3.0 | 4.0 | 0.00 | 0.00 | 0.00 | 59 | 1014.3 |
| 20260505025823 | 57 | 291 | 0.0 | 6.0 | 0.00 | 0.00 | 0.00 | 59 | 1014.5 |
| 20260505025324 | 57 | 291 | 3.0 | 6.0 | 0.00 | 0.00 | 0.00 | 60 | 1014.5 |
| 20260505024841 | 56 | 286 | 1.0 | 4.0 | 0.00 | 0.00 | 0.00 | 60 | 1014.5 |
| 20260505024321 | 56 | 275 | 3.0 | 4.0 | 0.00 | 0.00 | 0.00 | 60 | 1014.6 |
| 20260505023839 | 56 | 283 | 1.0 | 4.0 | 0.00 | 0.00 | 0.00 | 60 | 1014.7 |
| 20260505023316 | 56 | 246 | 3.0 | 4.0 | 0.00 | 0.00 | 0.00 | 60 | 1014.7 |
| 20260505022816 | 56 | 281 | 3.0 | 4.0 | 0.00 | 0.00 | 0.00 | 60 | 1014.7 |
| 20260505022316 | 57 | 236 | 2.0 | 5.0 | 0.00 | 0.00 | 0.00 | 60 | 1014.7 |
| 20260505021817 | 57 | 148 | 2.0 | 5.0 | 0.00 | 0.00 | 0.00 | 58 | 1014.8 |
| 20260505021317 | 57 | 234 | 0.0 | 5.0 | 0.00 | 0.00 | 0.00 | 58 | 1014.8 |
| 20260505020817 | 57 | 229 | 2.0 | 5.0 | 0.00 | 0.00 | 0.00 | 58 | 1014.8 |
| 20260505020315 | 57 | 304 | 1.0 | 3.0 | 0.00 | 0.00 | 0.00 | 59 | 1014.8 |
| 20260505015815 | 57 | 306 | 1.0 | 7.0 | 0.00 | 0.00 | 0.00 | 58 | 1014.9 |
| 20260505015334 | 57 | 348 | 3.0 | 7.0 | 0.00 | 0.00 | 0.00 | 58 | 1014.9 |
| 20260505014814 | 57 | 290 | 2.0 | 4.0 | 0.00 | 0.00 | 0.00 | 58 | 1014.9 |
| 20260505014334 | 57 | 238 | 2.0 | 6.0 | 0.00 | 0.00 | 0.00 | 58 | 1014.9 |
| 20260505013834 | 57 | 335 | 2.0 | 5.0 | 0.00 | 0.00 | 0.00 | 58 | 1015.0 |
| 20260505013333 | 57 | 254 | 2.0 | 5.0 | 0.00 | 0.00 | 0.00 | 58 | 1015.1 |
| 20260505012833 | 57 | 311 | 1.0 | 4.0 | 0.00 | 0.00 | 0.00 | 59 | 1015.1 |
| 20260505012332 | 57 | 198 | 1.0 | 2.0 | 0.00 | 0.00 | 0.00 | 59 | 1015.2 |
| 20260505011852 | 57 | 259 | 1.0 | 3.0 | 0.00 | 0.00 | 0.00 | 59 | 1015.3 |
| 20260505011330 | 57 | 297 | 2.0 | 3.0 | 0.00 | 0.00 | 0.00 | 59 | 1015.2 |
| 20260505010830 | 56 | 275 | 1.0 | 4.0 | 0.00 | 0.00 | 0.00 | 59 | 1015.5 |
| 20260505010328 | 56 | 286 | 2.0 | 4.0 | 0.00 | 0.00 | 0.00 | 60 | 1015.6 |
| 20260505005827 | 57 | 281 | 2.0 | 3.0 | 0.00 | 0.00 | 0.00 | 60 | 1015.6 |
| 20260505005326 | 57 | 298 | 2.0 | 3.0 | 0.00 | 0.00 | 0.00 | 59 | 1015.8 |
| 20260505004840 | 57 | 291 | 2.0 | 4.0 | 0.00 | 0.00 | 0.00 | 58 | 1015.9 |
| 20260505004319 | 57 | 314 | 2.0 | 4.0 | 0.00 | 0.00 | 0.00 | 58 | 1015.9 |
| 20260505003820 | 57 | 276 | 2.0 | 4.0 | 0.00 | 0.00 | 0.00 | 58 | 1016.1 |
| 20260505003340 | 57 | 315 | 1.0 | 5.0 | 0.00 | 0.00 | 0.00 | 58 | 1016.1 |
| 20260505002818 | 57 | 306 | 3.0 | 5.0 | 0.00 | 0.00 | 0.00 | 58 | 1016.1 |
| 20260505002318 | 57 | 295 | 3.0 | 6.0 | 0.00 | 0.00 | 0.00 | 59 | 1016.2 |
| 20260505001815 | 57 | 280 | 5.0 | 6.0 | 0.00 | 0.00 | 0.00 | 59 | 1016.3 |
| 20260505001315 | 57 | 269 | 4.0 | 6.0 | 0.00 | 0.00 | 0.00 | 56 | 1016.4 |
| 20260505000815 | 57 | 291 | 3.0 | 5.0 | 0.00 | 0.00 | 0.00 | 58 | 1016.5 |
| 20260505000314 | 57 | 291 | 2.0 | 3.0 | 0.00 | 0.00 | 0.00 | 57 | 1016.6 |
| 20260504235813 | 57 | 284 | 1.0 | 2.0 | 0.00 | 0.00 | 0.00 | 57 | 1016.6 |
| 20260504235333 | 57 | 42 | 1.0 | 3.0 | 0.00 | 0.00 | 0.00 | 57 | 1016.5 |
| 20260504234813 | 57 | 324 | 2.0 | 3.0 | 0.00 | 0.00 | 0.00 | 57 | 1016.7 |
| 20260504234332 | 57 | 333 | 0.0 | 2.0 | 0.00 | 0.00 | 0.00 | 57 | 1016.7 |
| 20260504233832 | 57 | 333 | 1.0 | 3.0 | 0.00 | 0.00 | 0.00 | 57 | 1016.7 |
| 20260504233329 | 57 | 282 | 2.0 | 3.0 | 0.00 | 0.00 | 0.00 | 56 | 1016.8 |
| 20260504232826 | 57 | 300 | 2.0 | 4.0 | 0.00 | 0.00 | 0.00 | 56 | 1016.8 |
| 20260504232326 | 57 | 295 | 2.0 | 4.0 | 0.00 | 0.00 | 0.00 | 55 | 1016.8 |
| 20260504231827 | 57 | 296 | 3.0 | 4.0 | 0.00 | 0.00 | 0.00 | 56 | 1017.0 |
| 20260504231326 | 57 | 313 | 2.0 | 3.0 | 0.00 | 0.00 | 0.00 | 55 | 1016.9 |
| 20260504230823 | 57 | 284 | 2.0 | 4.0 | 0.00 | 0.00 | 0.00 | 55 | 1016.9 |
| 20260504230344 | 57 | 302 | 2.0 | 4.0 | 0.00 | 0.00 | 0.00 | 54 | 1017.0 |
| 20260504225823 | 57 | 300 | 3.0 | 4.0 | 0.00 | 0.00 | 0.00 | 55 | 1017.0 |
| 20260504225325 | 57 | 279 | 2.0 | 4.0 | 0.00 | 0.00 | 0.00 | 54 | 1017.1 |
| 20260504224823 | 57 | 296 | 3.0 | 4.0 | 0.00 | 0.00 | 0.00 | 54 | 1017.2 |
| 20260504224323 | 57 | 306 | 2.0 | 4.0 | 0.00 | 0.00 | 0.00 | 54 | 1017.1 |
| 20260504223822 | 57 | 323 | 3.0 | 4.0 | 0.00 | 0.00 | 0.00 | 54 | 1017.2 |
| 20260504223321 | 57 | 292 | 2.0 | 4.0 | 0.00 | 0.00 | 0.00 | 54 | 1017.3 |
| 20260504222841 | 57 | 285 | 1.0 | 4.0 | 0.00 | 0.00 | 0.00 | 54 | 1017.4 |
| 20260504222319 | 57 | 294 | 2.0 | 4.0 | 0.00 | 0.00 | 0.00 | 53 | 1017.3 |
| 20260504221819 | 57 | 322 | 2.0 | 3.0 | 0.00 | 0.00 | 0.00 | 53 | 1017.4 |
| 20260504221320 | 57 | 288 | 0.0 | 3.0 | 0.00 | 0.00 | 0.00 | 53 | 1017.5 |
| 20260504220819 | 57 | 284 | 2.0 | 3.0 | 0.00 | 0.00 | 0.00 | 53 | 1017.4 |
| 20260504220336 | 57 | 309 | 1.0 | 3.0 | 0.00 | 0.00 | 0.00 | 53 | 1017.4 |
| 20260504215829 | 58 | 304 | 2.0 | 3.0 | 0.00 | 0.00 | 0.00 | 54 | 1017.3 |
| 20260504215328 | 58 | 5 | 0.0 | 2.0 | 0.00 | 0.00 | 0.00 | 53 | 1017.5 |
| 20260504214826 | 58 | 348 | 0.0 | 2.0 | 0.00 | 0.00 | 0.00 | 52 | 1017.4 |
| 20260504214348 | 58 | 355 | 0.0 | 2.0 | 0.00 | 0.00 | 0.00 | 51 | 1017.4 |
| 20260504213825 | 58 | 319 | 1.0 | 2.0 | 0.00 | 0.00 | 0.00 | 52 | 1017.5 |
| 20260504213324 | 58 | 325 | 1.0 | 2.0 | 0.00 | 0.00 | 0.00 | 52 | 1017.5 |
| 20260504212824 | 58 | 325 | 0.0 | 3.0 | 0.00 | 0.00 | 0.00 | 51 | 1017.6 |
| 20260504212324 | 58 | 325 | 0.0 | 3.0 | 0.00 | 0.00 | 0.00 | 53 | 1017.6 |
| 20260504211822 | 59 | 320 | 2.0 | 3.0 | 0.00 | 0.00 | 0.00 | 51 | 1017.6 |
| 20260504211321 | 59 | 296 | 2.0 | 3.0 | 0.00 | 0.00 | 0.00 | 51 | 1017.6 |
| 20260504210821 | 59 | 294 | 2.0 | 3.0 | 0.00 | 0.00 | 0.00 | 50 | 1017.8 |
| 20260504210339 | 59 | 274 | 2.0 | 4.0 | 0.00 | 0.00 | 0.00 | 50 | 1017.9 |
| 20260504205818 | 59 | 294 | 2.0 | 4.0 | 0.00 | 0.00 | 0.00 | 51 | 1017.9 |
| 20260504205316 | 59 | 317 | 1.0 | 3.0 | 0.00 | 0.00 | 0.00 | 50 | 1017.9 |
| 20260504204815 | 59 | 306 | 1.0 | 3.0 | 0.00 | 0.00 | 0.00 | 50 | 1017.9 |
| 20260504204314 | 59 | 310 | 1.0 | 2.0 | 0.00 | 0.00 | 0.00 | 49 | 1017.9 |
| 20260504203830 | 59 | 304 | 1.0 | 3.0 | 0.00 | 0.00 | 0.00 | 50 | 1017.9 |
| 20260504203350 | 60 | 321 | 0.0 | 3.0 | 0.00 | 0.00 | 0.00 | 48 | 1018.0 |
| 20260504202828 | 60 | 327 | 2.0 | 4.0 | 0.00 | 0.00 | 0.00 | 47 | 1018.0 |
| 20260504202327 | 59 | 296 | 2.0 | 4.0 | 0.00 | 0.00 | 0.00 | 48 | 1017.9 |
| 20260504201827 | 59 | 274 | 2.0 | 3.0 | 0.00 | 0.00 | 0.00 | 48 | 1017.8 |
| 20260504201347 | 60 | 265 | 2.0 | 2.0 | 0.00 | 0.00 | 0.00 | 48 | 1017.8 |
| 20260504200826 | 60 | 317 | 1.0 | 2.0 | 0.00 | 0.00 | 0.00 | 48 | 1017.7 |
| 20260504200347 | 60 | 329 | 1.0 | 3.0 | 0.00 | 0.00 | 0.00 | 48 | 1017.7 |
| 20260504195826 | 60 | 321 | 2.0 | 3.0 | 0.00 | 0.00 | 0.00 | 47 | 1017.7 |
| 20260504195326 | 60 | 304 | 1.0 | 2.0 | 0.00 | 0.00 | 0.00 | 47 | 1017.7 |
| 20260504194825 | 60 | 316 | 1.0 | 2.0 | 0.00 | 0.00 | 0.00 | 47 | 1017.7 |
| 20260504194345 | 60 | 310 | 1.0 | 3.0 | 0.00 | 0.00 | 0.00 | 47 | 1017.6 |
| 20260504193824 | 60 | 338 | 2.0 | 3.0 | 0.00 | 0.00 | 0.00 | 47 | 1017.6 |
| 20260504193324 | 60 | 294 | 2.0 | 3.0 | 0.00 | 0.00 | 0.00 | 48 | 1017.6 |
| 20260504192823 | 60 | 293 | 2.0 | 3.0 | 0.00 | 0.00 | 0.00 | 47 | 1017.5 |
| 20260504192323 | 60 | 316 | 2.0 | 3.0 | 0.00 | 0.00 | 0.00 | 47 | 1017.6 |
| 20260504191821 | 60 | 309 | 1.0 | 3.0 | 0.00 | 0.00 | 0.00 | 47 | 1017.5 |
| 20260504191322 | 60 | 313 | 1.0 | 3.0 | 0.00 | 0.00 | 0.00 | 47 | 1017.5 |
| 20260504190841 | 61 | 289 | 0.0 | 3.0 | 0.00 | 0.00 | 0.00 | 48 | 1017.5 |
| 20260504190320 | 61 | 292 | 2.0 | 4.0 | 0.00 | 0.00 | 0.00 | 48 | 1017.3 |
| 20260504185820 | 61 | 291 | 2.0 | 4.0 | 0.00 | 0.00 | 0.00 | 47 | 1017.4 |
| 20260504185320 | 61 | 275 | 3.0 | 4.0 | 0.00 | 0.00 | 0.00 | 46 | 1017.4 |
| 20260504184817 | 61 | 294 | 4.0 | 4.0 | 0.00 | 0.00 | 0.00 | 48 | 1017.3 |
| 20260504184317 | 61 | 292 | 4.0 | 4.0 | 0.00 | 0.00 | 0.00 | 49 | 1017.3 |
| 20260504183815 | 61 | 293 | 3.0 | 5.0 | 0.00 | 0.00 | 0.00 | 50 | 1017.4 |
| 20260504183322 | 61 | 301 | 4.0 | 5.0 | 0.00 | 0.00 | 0.00 | 49 | 1017.3 |
| 20260504182821 | 61 | 286 | 3.0 | 5.0 | 0.00 | 0.00 | 0.00 | 50 | 1017.3 |
| 20260504182322 | 61 | 287 | 4.0 | 5.0 | 0.00 | 0.00 | 0.00 | 49 | 1017.4 |
| 20260504181822 | 62 | 292 | 3.0 | 6.0 | 0.00 | 0.00 | 0.00 | 48 | 1017.3 |
| 20260504181322 | 62 | 275 | 2.0 | 4.0 | 0.00 | 0.00 | 0.00 | 48 | 1017.3 |
| 20260504180822 | 62 | 327 | 1.0 | 3.0 | 0.00 | 0.00 | 0.00 | 48 | 1017.5 |
| 20260504180322 | 62 | 295 | 1.0 | 2.0 | 0.00 | 0.00 | 0.00 | 48 | 1017.5 |
| 20260504175822 | 63 | 284 | 1.0 | 2.0 | 0.00 | 0.00 | 0.00 | 49 | 1017.4 |
| 20260504175342 | 63 | 284 | 0.0 | 2.0 | 0.00 | 0.00 | 0.00 | 49 | 1017.4 |
| 20260504174821 | 63 | 284 | 1.0 | 3.0 | 0.00 | 0.00 | 0.00 | 49 | 1017.3 |
| 20260504174321 | 63 | 281 | 1.0 | 3.0 | 0.00 | 0.00 | 0.00 | 48 | 1017.4 |
| 20260504173819 | 63 | 277 | 2.0 | 3.0 | 0.00 | 0.00 | 0.00 | 49 | 1017.5 |
| 20260504173319 | 64 | 331 | 1.0 | 3.0 | 0.00 | 0.00 | 0.00 | 48 | 1017.5 |
| 20260504172838 | 64 | 328 | 2.0 | 3.0 | 0.00 | 0.00 | 0.00 | 47 | 1017.4 |
| 20260504172317 | 64 | 5 | 2.0 | 4.0 | 0.00 | 0.00 | 0.00 | 47 | 1017.5 |
| 20260504171816 | 64 | 29 | 2.0 | 4.0 | 0.00 | 0.00 | 0.00 | 47 | 1017.5 |
| 20260504171315 | 64 | 61 | 2.0 | 4.0 | 0.00 | 0.00 | 0.00 | 47 | 1017.5 |
| 20260504170843 | 64 | 51 | 3.0 | 4.0 | 0.00 | 0.00 | 0.00 | 46 | 1017.3 |
| 20260504170320 | 64 | 53 | 2.0 | 4.0 | 0.00 | 0.00 | 0.00 | 46 | 1017.3 |
| 20260504160326 | 65 | 169 | 0.0 | 8.0 | 0.00 | 0.00 | 0.00 | 43 | 1017.6 |
| 20260504150819 | 64 | 254 | 9.0 | 14.0 | 0.00 | 0.00 | 0.00 | 47 | 1017.8 |
| 20260504150320 | 64 | 266 | 9.0 | 16.0 | 0.00 | 0.00 | 0.00 | 46 | 1017.7 |
| 20260504141318 | 66 | 117 | 1.0 | 7.0 | 0.00 | 0.00 | 0.00 | 47 | 1017.9 |
| 20260504140838 | 66 | 115 | 3.0 | 8.0 | 0.00 | 0.00 | 0.00 | 49 | 1017.7 |
| 20260504140314 | 66 | 111 | 4.0 | 8.0 | 0.00 | 0.00 | 0.00 | 47 | 1017.7 |
| 20260504130317 | 67 | 32 | 2.0 | 4.0 | 0.00 | 0.00 | 0.00 | 46 | 1018.3 |
| 20260504110358 | 66 | 92 | 6.0 | 9.0 | 0.00 | 0.00 | 0.00 | 45 | 1019.0 |
| 20260504100330 | 65 | 83 | 5.0 | 9.0 | 0.00 | 0.00 | 0.00 | 50 | 1019.2 |
| 20260504081830 | 62 | 59 | 2.0 | 5.0 | 0.00 | 0.00 | 0.00 | 55 | 1019.3 |
| 20260504081331 | 62 | 5 | 3.0 | 5.0 | 0.00 | 0.00 | 0.00 | 53 | 1019.3 |
| 20260504080831 | 62 | 87 | 2.0 | 6.0 | 0.00 | 0.00 | 0.00 | 56 | 1019.3 |
| 20260504080330 | 62 | 71 | 3.0 | 4.0 | 0.00 | 0.00 | 0.00 | 54 | 1019.2 |
| 20260504070325 | 59 | 184 | 1.0 | 3.0 | 0.00 | 0.00 | 0.00 | 56 | 1019.1 |
| 20260504050315 | 59 | 306 | 0.0 | 1.0 | 0.00 | 0.00 | 0.00 | 54 | 1018.4 |
| 20260504045816 | 58 | 306 | 0.0 | 1.0 | 0.00 | 0.00 | 0.00 | 54 | 1018.3 |
| 20260504045316 | 58 | 306 | 0.0 | 2.0 | 0.00 | 0.00 | 0.00 | 53 | 1018.3 |
| 20260504044815 | 58 | 304 | 1.0 | 3.0 | 0.00 | 0.00 | 0.00 | 53 | 1018.3 |
| 20260504044315 | 58 | 294 | 2.0 | 3.0 | 0.00 | 0.00 | 0.00 | 52 | 1018.3 |
| 20260504043816 | 58 | 303 | 0.0 | 3.0 | 0.00 | 0.00 | 0.00 | 53 | 1018.3 |
| 20260504043335 | 58 | 298 | 3.0 | 3.0 | 0.00 | 0.00 | 0.00 | 53 | 1018.3 |
| 20260504042829 | 58 | 308 | 2.0 | 3.0 | 0.00 | 0.00 | 0.00 | 51 | 1018.3 |